Home   Weather   Maniitsoq   Past weeks
Flag for Greenland

Past Weather in Maniitsoq, Greenland — Yesterday and Last 2 Weeks

Now
40 °F

Quite cool.


Feels Like: 35 °F
Forecast: 40 / 33 °F
Wind: 9 mph from North

Location: Sioralik

Current Time: Sep 18, 2019 at 10:18:17 pm

Latest Report: Sep 18, 2019 at 9:00 pm


Visibility: N/A

Pressure: 29.87 "Hg

Humidity: 76%

Dew Point: 33 °F

Location of ManiitsoqLocation

Past Weather in Maniitsoq — Graph

°F

Maniitsoq Temperature Yesterday

Maximum temperature yesterday: 42 °F (at 2:00 pm)
Minimum temperature yesterday: 38 °F (at 7:00 am)
Average temperature yesterday: 40 °F

High & Low Weather Summary for the Past Weeks

 TemperatureHumidityPressure
High47 °F (Sep 6, 1:00 pm)97% (Sep 3, 10:00 pm)30.20 "Hg (Sep 3, 10:00 pm)
Low36 °F (Sep 16, 4:00 am)45% (Sep 18, 11:00 am)29.29 "Hg (Sep 6, 9:00 am)
Average41 °F80%29.79 "Hg
* Reported Sep 3 8:00 pm — Sep 18 8:00 pm, Maniitsoq. Weather by CustomWeather, © 2019

Note: Actual official high and low records may vary slightly from our data, if they occured in-between our weather recording intervals... More about our weather records

Advertising

Maniitsoq Weather History for the Previous 24 Hours

Scroll right to see more
 ConditionsComfort  
Time TempWeatherWind HumidityBarometerVisibility
8:00 pm
Wed, Sep 18
40 °FQuite cool.13 mph80%29.89 "HgN/A
7:00 pm40 °FQuite cool.14 mph81%29.91 "HgN/A
6:00 pm40 °FChilly.13 mph75%29.92 "HgN/A
5:00 pm40 °FChilly.12 mph73%29.93 "HgN/A
4:00 pm42 °FQuite cool.13 mph62%29.94 "HgN/A
3:00 pm41 °FQuite cool.7 mph60%29.95 "HgN/A
2:00 pm41 °FQuite cool.7 mph58%29.97 "HgN/A
1:00 pm40 °FQuite cool.8 mph60%29.99 "HgN/A
12:00 pm41 °FQuite cool.5 mph45%30.00 "HgN/A
11:00 am40 °FQuite cool.8 mph45%30.01 "HgN/A
10:00 am39 °FChilly.10 mph54%30.02 "HgN/A
9:00 am39 °FChilly.12 mph58%30.03 "HgN/A
8:00 am38 °FChilly.13 mph56%30.03 "HgN/A
7:00 am38 °FChilly.10 mph64%30.04 "HgN/A
6:00 am38 °FChilly.10 mph63%30.04 "HgN/A
4:00 am39 °FChilly.12 mph63%30.05 "HgN/A
2:00 am40 °FChilly.9 mph64%30.06 "HgN/A
1:00 am40 °FQuite cool.12 mph63%30.06 "HgN/A
12:00 am40 °FQuite cool.8 mph69%30.08 "HgN/A
11:00 pm
Tue, Sep 17
40 °FQuite cool.10 mph79%30.09 "HgN/A
10:00 pm41 °FQuite cool.13 mph85%30.11 "HgN/A
Weather by CustomWeather, © 2019

See weather overview